Theta_e
338 340 340 341 343 340 341 339 339 340 340 340 341 340 339 339 340 340 339 339 342 345 348 350 350 351 351 352 356 356 354 355
338 339 340 344 346 345 345 340 339 338 342 342 342 342 341 340 341 341 340 342 343 345 347 349 350 352 352 353 355 356 354 355
339 341 341 342 342 345 343 340 338 337 340 341 339 340 342 341 341 341 342 343 343 345 347 350 352 351 353 353 355 356 355 354
339 341 342 340 340 340 346 349 337 339 339 338 339 338 338 339 341 344 344 347 347 347 348 350 352 350 353 353 353 355 354 354
340 339 339 337 339 340 342 343 339 339 339 340 339 342 342 341 344 345 347 349 350 350 352 352 353 352 351 354 354 352 354 355
340 338 338 337 338 339 339 338 337 337 336 340 339 341 344 344 344 345 347 351 351 352 354 356 357 357 357 355 355 356 355 356
339 337 337 338 338 338 338 338 337 336 336 340 343 344 345 346 346 348 350 350 352 354 356 358 359 361 362 362 361 359 358 359
340 336 335 336 337 336 335 335 335 336 340 345 346 346 348 351 354 355 357 357 357 358 359 359 360 361 361 362 362 362 362 362
339 338 335 335 336 335 335 335 335 335 342 349 351 351 353 353 354 354 353 352 353 354 355 356 357 359 359 362 363 362 361 361
338 339 338 336 337 336 336 336 335 342 347 349 351 351 351 352 353 353 353 353 352 352 353 354 355 353 354 350 353 355 354 353
337 339 338 340 339 338 337 339 337 341 346 350 351 352 353 352 352 353 352 351 349 349 351 352 349 347 349 348 347 347 347 348
335 335 339 340 339 336 337 341 341 343 347 349 348 347 357 353 352 351 351 349 348 348 349 349 350 349 347 346 347 345 344 344
335 335 337 337 338 338 339 338 342 343 346 343 348 356 353 351 351 351 350 350 348 347 347 348 348 348 346 344 345 344 346 343
335 337 337 340 341 338 341 344 342 344 345 345 350 351 350 349 349 349 348 348 348 347 342 344 345 344 343 341 342 343 342 341
334 336 341 340 337 338 340 342 342 342 343 345 346 349 349 349 348 347 344 344 345 344 343 342 343 343 342 341 342 340 340 340
337 343 341 339 337 338 339 340 341 343 343 343 348 350 348 348 346 344 342 341 341 342 344 341 341 342 342 342 342 342 341 339
345 343 341 338 339 339 339 342 343 343 342 344 348 349 347 346 344 342 341 342 343 342 339 336 340 340 341 341 340 339 339 335
340 344 342 342 342 342 343 345 344 343 343 347 350 349 346 346 345 344 344 342 341 340 338 341 339 339 339 338 339 337 335 332
337 339 340 341 344 344 346 345 344 345 348 351 348 346 346 346 346 343 342 342 341 340 339 338 338 337 337 338 337 336 336 334
Wind_Speed
15 11 10 4 8 14 8 6 8 11 14 13 12 12 12 11 9 8 8 7 7 10 12 16 18 18 18 19 18 20 21 20
12 7 10 6 21 3 10 2 11 6 15 11 12 10 9 10 10 9 11 9 9 10 12 15 18 19 17 18 18 18 19 19
12 12 13 10 10 12 7 5 6 9 9 10 5 4 11 11 8 11 11 11 11 10 11 13 15 18 19 18 17 17 18 20
16 17 10 10 10 8 5 11 4 10 11 9 8 7 2 5 6 5 8 9 10 11 12 13 15 16 17 18 19 18 18 21
16 9 10 9 12 11 9 16 2 5 10 12 12 10 4 7 6 5 6 7 7 7 7 7 9 11 13 15 16 16 17 19
12 14 16 16 12 8 11 5 10 8 14 15 8 8 6 6 5 6 4 6 5 4 4 2 3 6 9 11 13 14 15 16
8 4 5 12 10 9 12 3 4 16 12 15 7 7 7 10 9 9 8 7 6 4 3 2 1 3 5 7 10 12 13 14
12 10 6 8 13 11 8 1 7 4 11 14 10 9 10 12 14 15 15 13 11 9 8 7 6 4 3 3 5 7 10 11
13 10 10 11 10 8 7 5 6 7 9 14 13 12 13 14 15 15 14 13 12 11 11 11 10 8 7 4 0 2 8 11
10 14 15 9 17 13 7 5 5 7 9 14 16 15 15 14 14 13 12 11 11 10 10 10 9 8 6 4 2 5 4 5
11 14 11 6 6 7 8 9 5 6 12 17 19 18 14 13 13 12 11 10 10 10 11 11 12 11 11 10 10 8 7 6
14 13 16 13 17 15 10 8 8 13 15 16 16 10 11 12 13 12 11 11 11 11 11 12 12 12 13 12 10 9 7 5
11 13 12 11 18 10 10 10 19 20 18 14 6 15 17 13 13 12 11 11 11 12 12 12 11 10 11 9 9 8 8 8
13 11 11 21 15 10 5 17 20 20 16 13 15 16 15 13 12 11 11 10 10 10 11 11 10 9 9 9 9 7 6 6
14 14 14 25 14 14 12 17 19 17 16 17 17 15 14 13 11 11 11 10 9 10 11 9 8 8 8 7 6 5 6 7
13 8 16 22 13 16 15 19 18 18 18 18 17 15 14 13 12 11 10 10 9 9 8 8 10 9 8 9 10 8 6 10
5 5 12 18 18 18 17 19 19 19 18 17 17 15 14 14 13 12 11 10 8 7 8 10 8 9 9 8 8 7 8 8
7 16 12 21 21 19 21 22 23 23 19 17 18 17 17 15 14 13 12 9 10 9 9 9 7 7 9 8 8 7 8 8
11 21 22 19 21 19 22 24 24 22 22 23 20 18 17 18 16 16 12 11 10 9 8 7 6 6 5 5 5 7 5 5
Wind_Direction
200 201 252 272 257 1 12 177 146 112 114 123 136 151 164 135 132 135 108 103 137 170 188 195 198 195 196 200 207 209 215 217
173 227 236 50 269 68 202 119 115 102 119 105 137 137 122 143 142 123 114 134 137 157 174 188 195 198 195 198 202 207 210 218
164 214 203 197 234 172 244 341 143 172 98 113 102 76 142 140 132 127 128 134 143 154 168 183 189 197 201 204 204 209 211 216
196 209 249 293 231 214 84 306 9 84 111 107 110 84 75 63 128 119 146 149 150 154 163 177 187 194 203 205 211 214 216 218
192 171 201 251 258 244 201 199 113 302 116 114 120 116 82 85 116 158 181 162 161 162 170 184 193 203 211 217 217 223 221 223
182 198 192 210 219 254 274 169 136 87 134 133 128 108 102 95 100 124 172 154 190 174 145 181 218 230 233 234 236 234 234 236
105 106 156 167 197 197 265 10 349 127 145 108 93 87 83 94 96 104 102 107 99 64 69 29 340 286 265 255 249 243 248 243
217 161 214 254 177 188 220 358 295 353 99 96 113 131 110 99 94 89 82 77 71 67 60 41 31 18 341 310 280 258 252 252
217 213 193 237 225 195 201 222 263 215 121 122 122 114 104 99 96 92 87 80 73 65 55 49 45 47 47 37 134 216 229 231
228 210 212 219 218 208 209 180 236 96 122 115 117 112 95 98 100 94 87 79 66 57 52 51 50 49 55 30 196 203 244 276
214 232 195 139 185 186 219 210 218 147 130 134 128 123 106 100 98 96 90 81 72 68 67 64 62 66 66 64 61 64 56 54
221 237 222 183 190 211 210 223 182 150 158 154 167 200 117 116 104 96 91 88 82 78 76 72 72 71 69 68 62 52 45 26
206 223 247 194 140 154 220 255 164 165 169 165 102 88 122 118 104 101 98 91 86 86 82 77 74 67 58 54 53 49 47 57
221 206 219 127 132 195 123 131 158 163 165 141 129 124 122 116 111 108 101 95 91 85 80 75 66 60 55 52 52 54 54 48
208 220 146 158 160 197 159 151 156 160 162 149 146 134 128 119 116 112 107 102 98 93 87 69 55 57 49 39 28 36 21 16
223 131 159 166 147 172 158 160 166 165 159 158 147 141 133 129 124 117 108 106 106 93 87 75 61 59 53 52 44 54 41 56
111 118 170 172 165 171 168 163 166 159 162 157 147 144 141 136 130 124 117 112 112 107 97 88 89 81 55 49 56 62 74 81
185 173 200 182 183 180 170 167 161 159 153 148 147 144 143 137 134 130 127 123 107 103 95 92 83 62 64 58 77 67 74 67
247 192 198 185 183 178 168 164 159 156 150 143 142 145 143 139 140 135 121 119 121 114 111 103 88 73 66 87 67 85 66 62